This is the latest recevied weather packets stored in our database for station/object PD2BVG. If no packets are shown the sender has not sent any weather packets the latest 1 day(s).
| Time | Temp. | Humidity | Pressure | Rain* | Wind** | Luminosity | Snow |
|---|---|---|---|---|---|---|---|
| 1777980003 | 14.44° C | 72% | 1011.5 hPa | 0 mm | 3.13 m/s, 333° | 772 W/m² | - |
| 1777979942 | 14.44° C | 72% | 1011.5 hPa | 0 mm | 3.13 m/s, 330° | 772 W/m² | - |
| 1777979882 | 14.44° C | 72% | 1011.4 hPa | 0 mm | 3.58 m/s, 31° | 795 W/m² | - |
| 1777979822 | 14.44° C | 71% | 1011.4 hPa | 0 mm | 4.02 m/s, 0° | 827 W/m² | - |
| 1777979763 | 15° C | 71% | 1011.5 hPa | 0 mm | 4.02 m/s, 333° | 793 W/m² | - |
| 1777979702 | 15° C | 72% | 1011.5 hPa | 0 mm | 4.02 m/s, 331° | 786 W/m² | - |
| 1777979643 | 15° C | 73% | 1011.5 hPa | 0 mm | 3.13 m/s, 316° | 832 W/m² | - |
| 1777979582 | 14.44° C | 74% | 1011.5 hPa | 0 mm | 2.68 m/s, 344° | 823 W/m² | - |
| 1777979523 | 14.44° C | 72% | 1011.5 hPa | 0 mm | 2.68 m/s, 354° | 784 W/m² | - |
| 1777979463 | 14.44° C | 72% | 1011.6 hPa | 0 mm | 3.13 m/s, 333° | 784 W/m² | - |
| 1777979407 | 14.44° C | 73% | 1011.5 hPa | 0 mm | 3.13 m/s, 340° | 765 W/m² | - |
| 1777979345 | 14.44° C | 74% | 1011.6 hPa | 0 mm | 2.24 m/s, 0° | 712 W/m² | - |
| 1777979283 | 14.44° C | 74% | 1011.6 hPa | 0 mm | 2.68 m/s, 0° | 651 W/m² | - |
| 1777979222 | 14.44° C | 73% | 1011.6 hPa | 0 mm | 4.02 m/s, 326° | 740 W/m² | - |
| 1777979162 | 14.44° C | 73% | 1011.6 hPa | 0 mm | 4.02 m/s, 0° | 781 W/m² | - |
| 1777979103 | 14.44° C | 72% | 1011.6 hPa | 0 mm | 3.13 m/s, 4° | 784 W/m² | - |
| 1777979042 | 14.44° C | 73% | 1011.6 hPa | 0 mm | 3.58 m/s, 324° | 784 W/m² | - |
| 1777978981 | 14.44° C | 73% | 1011.6 hPa | 0 mm | 3.58 m/s, 327° | 776 W/m² | - |
| 1777978923 | 14.44° C | 73% | 1011.6 hPa | 0 mm | 4.02 m/s, 344° | 753 W/m² | - |
| 1777978862 | 14.44° C | 73% | 1011.6 hPa | 0 mm | 4.02 m/s, 351° | 753 W/m² | - |
| 1777978804 | 14.44° C | 74% | 1011.5 hPa | 0 mm | 3.58 m/s, 345° | 684 W/m² | - |
| 1777978742 | 13.89° C | 74% | 1011.5 hPa | 0 mm | 3.13 m/s, 345° | 763 W/m² | - |
| 1777978682 | 13.89° C | 74% | 1011.5 hPa | 0 mm | 4.02 m/s, 319° | 742 W/m² | - |
| 1777978622 | 13.89° C | 74% | 1011.5 hPa | 0 mm | 4.47 m/s, 0° | 614 W/m² | - |
| 1777978562 | 13.89° C | 74% | 1011.5 hPa | 0 mm | 4.02 m/s, 331° | 702 W/m² | - |
* Rain latest hour (hover to see other rain measurements)
** Current wind speed in m/s (hover to see current wind gust speed)